TimeMDT,TemperatureF,Dew PointF,Humidity,Sea Level PressureIn,VisibilityMPH,Wind Direction,Wind SpeedMPH,Gust SpeedMPH,PrecipitationIn,Events,Conditions,WindDirDegrees,DateUTC
12:53 AM,69.1,35.1,29,29.96,10.0,Calm,Calm,-,N/A,,Clear,0,2011-10-01 06:53:00
1:53 AM,68.0,35.1,30,29.97,10.0,Calm,Calm,-,N/A,,Clear,0,2011-10-01 07:53:00
2:53 AM,63.0,35.1,35,29.99,10.0,WSW,3.5,-,N/A,,Clear,250,2011-10-01 08:53:00
3:53 AM,64.9,35.1,33,29.98,10.0,Calm,Calm,-,N/A,,Mostly Cloudy,0,2011-10-01 09:53:00
4:53 AM,63.0,36.0,37,29.99,10.0,ENE,3.5,-,N/A,,Partly Cloudy,60,2011-10-01 10:53:00
5:53 AM,61.0,35.1,38,30.00,10.0,SE,3.5,-,N/A,,Partly Cloudy,130,2011-10-01 11:53:00
6:53 AM,60.1,36.0,41,30.02,10.0,East,3.5,-,N/A,,Clear,100,2011-10-01 12:53:00
7:53 AM,59.0,35.6,42,30.19,10.0,SE,3.5,-,N/A,,Clear,140,2011-10-01 13:53:00
8:53 AM,66.2,37.4,35,30.19,10.0,South,4.6,-,N/A,,Clear,170,2011-10-01 14:53:00
9:53 AM,71.1,37.0,29,30.06,10.0,ENE,6.9,-,N/A,,Clear,70,2011-10-01 15:53:00
10:53 AM,73.0,37.0,27,30.05,10.0,SE,8.1,-,N/A,,Partly Cloudy,130,2011-10-01 16:53:00
11:53 AM,75.0,37.0,25,30.04,10.0,Calm,Calm,-,N/A,,Clear,0,2011-10-01 17:53:00
12:53 PM,78.1,37.0,23,30.01,10.0,East,3.5,-,N/A,,Clear,100,2011-10-01 18:53:00
1:53 PM,80.6,37.4,21,30.14,10.0,Calm,Calm,-,N/A,,Clear,0,2011-10-01 19:53:00
2:53 PM,84.0,37.0,19,29.95,10.0,Calm,Calm,-,N/A,,Clear,0,2011-10-01 20:53:00
3:53 PM,82.9,37.0,19,29.95,10.0,Calm,Calm,-,N/A,,Clear,0,2011-10-01 21:53:00
4:53 PM,82.0,37.0,20,29.93,10.0,East,6.9,-,N/A,,Clear,90,2011-10-01 22:53:00
5:53 PM,82.0,36.0,19,29.92,10.0,ESE,6.9,-,N/A,,Partly Cloudy,110,2011-10-01 23:53:00
6:53 PM,80.1,37.0,21,29.93,10.0,ESE,8.1,-,N/A,,Mostly Cloudy,120,2011-10-02 00:53:00
7:53 PM,73.9,37.9,27,29.95,10.0,SE,4.6,-,N/A,,Clear,140,2011-10-02 01:53:00
8:53 PM,73.9,37.9,27,29.96,10.0,ESE,4.6,-,N/A,,Clear,120,2011-10-02 02:53:00
9:53 PM,70.0,37.9,31,29.96,10.0,SE,6.9,-,N/A,,Clear,140,2011-10-02 03:53:00
10:53 PM,66.9,37.0,33,29.97,10.0,ESE,4.6,-,N/A,,Clear,110,2011-10-02 04:53:00
11:53 PM,66.9,37.9,34,29.98,10.0,East,4.6,-,N/A,,Clear,80,2011-10-02 05:53:00